DW2217 Weather Reports


time (UTC)temp
C
wind
direction
speed
KPH
gust
KPH
rain 1hr
cm
rain 24hr
cm
rain mn
cm
humidity
%
barometer
mb
20260509091734 0 324 1.6 3.2 0.00 0.00 0.00 94 1013.1
20260509091229 0 324 1.6 3.2 0.00 0.00 0.00 95 1013.2
20260509090727 0 324 1.6 3.2 0.00 0.00 0.00 96 1013.2
20260509090224 0 323 3.2 3.2 0.00 0.00 0.00 96 1013.0
20260509085722 0 323 3.2 3.2 0.00 0.00 0.00 95 1013.0
20260509085219 0 323 3.2 3.2 0.00 0.00 0.00 95 1012.7
20260509084716 0 324 3.2 3.2 0.00 0.00 0.00 95 1012.9
20260509084212 0 324 1.6 3.2 0.00 0.00 0.00 94 1012.8
20260509083711 0 324 0.0 3.2 0.00 0.00 0.00 94 1012.9
20260509083207 0 324 0.0 3.2 0.00 0.00 0.00 94 1013.0
20260509082704 0 324 0.0 0.0 0.00 0.00 0.00 94 1013.1
20260509082200 0 324 1.6 3.2 0.00 0.00 0.00 94 1013.1
20260509081657 0 324 0.0 0.0 0.00 0.00 0.00 93 1013.3
20260509081154 0 324 0.0 0.0 0.00 0.00 0.00 93 1013.2
20260509080653 0 324 0.0 3.2 0.00 0.00 0.00 92 1013.1
20260509080150 0 324 1.6 3.2 0.00 0.00 0.00 92 1013.2
20260509075648 1 324 0.0 3.2 0.00 0.00 0.00 91 1013.2
20260509075145 1 324 0.0 0.0 0.00 0.00 0.00 91 1013.1
20260509074642 1 324 0.0 0.0 0.00 0.00 0.00 91 1013.1
20260509074138 1 324 0.0 0.0 0.00 0.00 0.00 90 1013.0
20260509073636 2 324 0.0 3.2 0.00 0.00 0.00 90 1013.0
20260509073132 2 324 0.0 0.0 0.00 0.00 0.00 90 1013.0
20260509072629 2 324 0.0 0.0 0.00 0.00 0.00 90 1012.9
20260509072126 2 324 0.0 3.2 0.00 0.00 0.00 89 1012.9
20260509071622 2 324 0.0 0.0 0.00 0.00 0.00 90 1012.9
20260509071120 1 323 1.6 3.2 0.00 0.00 0.00 89 1012.9
20260509070617 1 265 3.2 3.2 0.00 0.00 0.00 86 1013.0
20260509070113 1 215 3.2 3.2 0.00 0.00 0.00 86 1012.8
20260509065608 2 215 0.0 3.2 0.00 0.00 0.00 83 1013.0
20260509065104 2 215 0.0 3.2 0.00 0.00 0.00 82 1012.9
20260509064602 2 215 3.2 3.2 0.00 0.00 0.00 82 1012.7
20260509064100 2 215 1.6 3.2 0.00 0.00 0.00 83 1012.9
20260509063556 1 215 1.6 3.2 0.00 0.00 0.00 84 1012.8
20260509063053 1 215 1.6 3.2 0.00 0.00 0.00 86 1012.6
20260509062550 2 215 0.0 0.0 0.00 0.00 0.00 86 1012.7
20260509062048 2 215 1.6 3.2 0.00 0.00 0.00 85 1012.7
20260509061544 2 215 3.2 3.2 0.00 0.00 0.00 84 1012.7
20260509061042 2 214 0.0 0.0 0.00 0.00 0.00 84 1012.5
20260509060539 2 214 0.0 0.0 0.00 0.00 0.00 85 1012.5
20260509060034 2 214 0.0 3.2 0.00 0.00 0.00 82 1012.5
20260509055529 2 215 0.0 3.2 0.00 0.00 0.00 82 1012.7
20260509055021 2 215 3.2 3.2 0.00 0.00 0.00 83 1012.6
20260509054517 2 214 0.0 0.0 0.00 0.00 0.00 82 1012.5
20260509054016 2 214 0.0 0.0 0.00 0.00 0.00 83 1012.6
20260509053514 2 215 1.6 3.2 0.00 0.00 0.00 86 1012.6
20260509053010 3 215 3.2 3.2 0.00 0.00 0.00 84 1012.7
20260509052508 3 214 1.6 3.2 0.00 0.00 0.00 83 1012.7
20260509052006 4 213 0.0 3.2 0.00 0.00 0.00 77 1012.5
20260509051504 3 214 0.0 3.2 0.00 0.00 0.00 69 1012.5
20260509051000 3 214 0.0 0.0 0.00 0.00 0.00 83 1012.4
20260509050457 3 331 0.0 0.0 0.00 0.00 0.00 70 1012.4
20260509045953 3 331 0.0 0.0 0.00 0.00 0.00 84 1012.6
20260509045451 3 331 0.0 3.2 0.00 0.00 0.00 82 1012.5
20260509044948 4 331 0.0 3.2 0.00 0.00 0.00 80 1012.6
20260509044445 5 331 0.0 0.0 0.00 0.00 0.00 64 1012.5
20260509043942 4 331 0.0 0.0 0.00 0.00 0.00 64 1012.5
20260509043438 3 331 0.0 3.2 0.00 0.00 0.00 74 1012.6
20260509042933 3 331 3.2 3.2 0.00 0.00 0.00 81 1012.6
20260509042431 3 331 0.0 0.0 0.00 0.00 0.00 79 1012.5
20260509041927 5 331 1.6 4.8 0.00 0.00 0.00 77 1012.5
20260509041424 5 331 0.0 3.2 0.00 0.00 0.00 66 1012.3
20260509040922 4 331 0.0 0.0 0.00 0.00 0.00 64 1012.2
20260509040420 3 331 0.0 0.0 0.00 0.00 0.00 66 1012.3
20260509035916 3 331 0.0 0.0 0.00 0.00 0.00 79 1012.3
20260509035414 3 331 0.0 0.0 0.00 0.00 0.00 83 1012.2
20260509034910 3 331 0.0 3.2 0.00 0.00 0.00 82 1012.0
20260509034408 3 331 3.2 3.2 0.00 0.00 0.00 78 1011.8
20260509033905 3 331 0.0 3.2 0.00 0.00 0.00 75 1011.9
20260509033402 3 331 1.6 3.2 0.00 0.00 0.00 72 1011.9
20260509032858 3 331 0.0 3.2 0.00 0.00 0.00 73 1011.8
20260509032355 4 331 1.6 3.2 0.00 0.00 0.00 73 1011.8
20260509031854 5 331 0.0 0.0 0.00 0.00 0.00 67 1011.7
20260509031350 5 331 0.0 3.2 0.00 0.00 0.00 66 1011.6
20260509030848 5 331 0.0 3.2 0.00 0.00 0.00 70 1011.6
20260509030346 5 331 1.6 3.2 0.00 0.00 0.00 70 1011.6
20260509025843 5 331 1.6 3.2 0.00 0.00 0.00 59 1011.3
20260509025338 5 331 3.2 4.8 0.00 0.00 0.00 63 1011.5
20260509024833 5 330 4.8 4.8 0.00 0.00 0.00 67 1011.6
20260509024330 5 331 1.6 3.2 0.00 0.00 0.00 60 1011.5
20260509023827 5 331 1.6 3.2 0.00 0.00 0.00 65 1011.6
20260509023324 5 331 1.6 3.2 0.00 0.00 0.00 65 1011.4
20260509022821 5 331 4.8 4.8 0.00 0.00 0.00 67 1011.5
20260509022318 4 331 0.0 3.2 0.00 0.00 0.00 70 1011.2
20260509021815 5 331 3.2 3.2 0.00 0.00 0.00 69 1011.4
20260509021312 5 331 0.0 3.2 0.00 0.00 0.00 72 1011.2
20260509020810 5 331 0.0 0.0 0.00 0.00 0.00 60 1011.1
20260509020308 5 331 0.0 3.2 0.00 0.00 0.00 65 1011.0
20260509015805 5 331 0.0 0.0 0.00 0.00 0.00 69 1010.8
20260509015306 5 331 0.0 3.2 0.00 0.00 0.00 69 1010.9
20260509014759 5 331 0.0 3.2 0.00 0.00 0.00 72 1010.6
20260509014256 5 331 3.2 4.8 0.00 0.00 0.00 71 1010.9
20260509013753 5 332 0.0 3.2 0.00 0.00 0.00 67 1010.8
20260509013248 6 331 3.2 4.8 0.00 0.00 0.00 64 1010.5
20260509012745 6 332 1.6 3.2 0.00 0.00 0.00 58 1010.4
20260509012242 6 332 0.0 0.0 0.00 0.00 0.00 60 1010.5
20260509011739 6 332 0.0 3.2 0.00 0.00 0.00 59 1010.4
20260509011237 6 332 0.0 3.2 0.00 0.00 0.00 64 1010.4
20260509010735 6 332 0.0 0.0 0.00 0.00 0.00 64 1010.3
20260509010231 7 332 0.0 0.0 0.00 0.00 0.00 59 1010.2
20260509005728 7 332 0.0 3.2 0.00 0.00 0.00 50 1010.1
20260509005225 8 331 3.2 3.2 0.00 0.00 0.00 54 1010.0
20260509004720 8 332 3.2 3.2 0.00 0.00 0.00 45 1009.7
20260509004218 8 332 1.6 3.2 0.00 0.00 0.00 46 1009.8
20260509003715 8 332 3.2 3.2 0.00 0.00 0.00 46 1009.7
20260509003213 8 332 3.2 3.2 0.00 0.00 0.00 47 1009.8
20260509002710 8 331 1.6 3.2 0.00 0.00 0.00 46 1009.6
20260509002208 8 332 1.6 3.2 0.00 0.00 0.00 45 1009.5
20260509001705 8 332 0.0 3.2 0.00 0.00 0.00 43 1009.5
20260509001200 9 331 1.6 3.2 0.00 0.00 0.00 43 1009.4
20260509000659 9 332 3.2 3.2 0.00 0.00 0.00 44 1009.5
20260509000156 9 327 3.2 4.8 0.00 0.00 0.00 43 1009.4
20260508235653 9 318 3.2 4.8 0.00 0.00 0.00 43 1009.1
20260508235149 10 310 3.2 8.0 0.00 0.00 0.00 41 1009.2
20260508234646 10 297 4.8 8.0 0.00 0.00 0.00 40 1009.1
20260508234142 10 293 6.4 8.0 0.00 0.00 0.00 39 1009.2
20260508233637 10 282 4.8 8.0 0.00 0.00 0.00 39 1009.0
20260508233134 10 299 4.8 8.0 0.00 0.00 0.00 39 1009.1
20260508232631 10 314 4.8 14.5 0.00 0.00 0.00 38 1008.8
20260508232128 10 296 14.5 16.1 0.00 0.00 0.00 36 1008.7
20260508231625 11 305 6.4 11.3 0.00 0.00 0.00 38 1008.8
20260508231122 11 284 11.3 16.1 0.00 0.00 0.00 37 1008.8
20260508230618 11 314 11.3 14.5 0.00 0.00 0.00 37 1009.0
20260508230115 11 302 8.0 16.1 0.00 0.00 0.00 36 1008.7
20260508225613 11 293 4.8 11.3 0.00 0.00 0.00 35 1008.5
20260508225109 11 294 8.0 11.3 0.00 0.00 0.00 37 1008.6
20260508224607 11 277 11.3 14.5 0.00 0.00 0.00 37 1008.6
20260508224104 11 272 16.1 19.3 0.00 0.00 0.00 37 1008.6
20260508223602 11 285 11.3 14.5 0.00 0.00 0.00 37 1008.4
20260508223059 11 337 4.8 14.5 0.00 0.00 0.00 36 1008.5
20260508222556 11 278 11.3 14.5 0.00 0.00 0.00 35 1008.4
20260508222053 11 271 11.3 19.3 0.00 0.00 0.00 35 1008.3
20260508221549 11 266 9.7 16.1 0.00 0.00 0.00 34 1008.3
20260508221045 11 268 16.1 24.1 0.00 0.00 0.00 33 1008.3
20260508220542 11 290 9.7 19.3 0.00 0.00 0.00 35 1008.3
20260508220038 11 339 12.9 19.3 0.00 0.00 0.00 35 1007.9
20260508215535 11 281 11.3 16.1 0.00 0.00 0.00 34 1008.2
20260508215032 12 332 11.3 14.5 0.00 0.00 0.00 35 1008.0
20260508214530 11 265 14.5 19.3 0.00 0.00 0.00 35 1008.2
20260508214026 11 325 14.5 27.4 0.00 0.00 0.00 36 1008.1
20260508213523 11 281 19.3 22.5 0.00 0.00 0.00 36 1008.0
20260508213018 11 273 4.8 14.5 0.00 0.00 0.00 39 1008.0
20260508212515 11 275 8.0 16.1 0.00 0.00 0.00 39 1008.1
20260508212012 11 295 6.4 8.0 0.00 0.00 0.00 40 1008.1
20260508211508 11 309 4.8 11.3 0.00 0.00 0.00 40 1008.0
20260508211004 11 323 8.0 11.3 0.00 0.00 0.00 39 1008.0
20260508210501 11 302 4.8 11.3 0.00 0.00 0.00 40 1008.0
20260508205957 11 287 9.7 14.5 0.00 0.00 0.00 40 1008.0
20260508205455 11 291 4.8 11.3 0.00 0.00 0.00 43 1007.8
20260508204951 10 274 11.3 16.1 0.00 0.00 0.00 41 1008.0
20260508204448 10 274 11.3 14.5 0.00 0.00 0.00 41 1008.0
20260508203943 10 265 9.7 14.5 0.00 0.00 0.00 42 1007.8
20260508203440 10 282 12.9 14.5 0.00 0.00 0.00 42 1007.7
20260508202935 10 278 11.3 14.5 0.00 0.00 0.00 43 1007.8
20260508202433 10 270 17.7 22.5 0.00 0.00 0.00 42 1007.6
20260508201929 10 324 12.9 16.1 0.00 0.00 0.00 43 1007.5
20260508201421 10 273 17.7 19.3 0.00 0.00 0.00 43 1007.8
20260508200918 10 269 16.1 22.5 0.00 0.00 0.00 43 1007.7
20260508200414 10 300 6.4 19.3 0.00 0.00 0.00 44 1007.7
20260508195910 10 285 17.7 19.3 0.00 0.00 0.00 45 1007.8
20260508195407 10 267 14.5 22.5 0.00 0.00 0.00 44 1007.6
20260508194903 10 275 12.9 22.5 0.00 0.00 0.00 45 1007.7
20260508194400 10 299 14.5 19.3 0.00 0.00 0.00 43 1007.4
20260508193857 11 278 12.9 19.3 0.00 0.00 0.00 43 1007.3
20260508193354 11 268 11.3 16.1 0.00 0.00 0.00 42 1007.3
20260508192850 11 267 11.3 22.5 0.00 0.00 0.00 41 1007.3
20260508192347 11 279 8.0 14.5 0.00 0.00 0.00 44 1007.3
20260508191845 11 252 8.0 11.3 0.00 0.00 0.00 44 1007.4
20260508191342 11 285 9.7 11.3 0.00 0.00 0.00 44 1007.3
20260508190839 11 275 11.3 14.5 0.00 0.00 0.00 44 1007.1
20260508190335 11 264 11.3 14.5 0.00 0.00 0.00 45 1007.2
20260508185831 11 272 14.5 22.5 0.00 0.00 0.00 43 1007.2
20260508185329 11 267 14.5 19.3 0.00 0.00 0.00 42 1006.9
20260508184826 11 277 8.0 11.3 0.00 0.00 0.00 43 1006.8
20260508184323 11 269 12.9 16.1 0.00 0.00 0.00 41 1006.9
20260508183820 11 309 12.9 14.5 0.00 0.00 0.00 40 1007.3
20260508183317 11 253 11.3 14.5 0.00 0.00 0.00 43 1006.7
20260508182812 11 268 17.7 22.5 0.00 0.00 0.00 39 1007.0
20260508182310 11 241 11.3 16.1 0.00 0.00 0.00 41 1006.9
20260508181805 11 274 14.5 14.5 0.00 0.00 0.00 41 1007.0
20260508181302 11 256 12.9 16.1 0.00 0.00 0.00 39 1006.8
20260508180759 11 275 17.7 22.5 0.00 0.00 0.00 39 1006.7
20260508180256 11 267 9.7 14.5 0.00 0.00 0.00 40 1006.8
20260508175752 11 288 4.8 4.8 0.00 0.00 0.00 41 1006.9
20260508175249 11 294 9.7 16.1 0.00 0.00 0.00 41 1006.7
20260508174747 11 279 4.8 14.5 0.00 0.00 0.00 39 1006.8
20260508174244 12 303 17.7 24.1 0.00 0.00 0.00 39 1006.8
20260508173741 11 295 11.3 19.3 0.00 0.00 0.00 40 1006.8
20260508173236 12 329 11.3 16.1 0.00 0.00 0.00 38 1006.5
20260508172733 12 289 14.5 19.3 0.00 0.00 0.00 38 1006.7
20260508172230 12 286 11.3 16.1 0.00 0.00 0.00 41 1006.7
20260508171727 12 267 4.8 8.0 0.00 0.00 0.00 41 1006.7
20260508171223 11 270 11.3 16.1 0.00 0.00 0.00 43 1006.8
20260508170720 11 252 8.0 11.3 0.00 0.00 0.00 43 1006.7
20260508170218 11 249 17.7 19.3 0.00 0.00 0.00 41 1006.7
20260508165715 11 269 11.3 14.5 0.00 0.00 0.00 42 1006.8
20260508165212 11 271 11.3 14.5 0.00 0.00 0.00 43 1006.8
20260508164708 11 220 11.3 14.5 0.00 0.00 0.00 42 1006.7
20260508164205 11 269 12.9 16.1 0.00 0.00 0.00 44 1006.8
20260508163703 11 321 11.3 14.5 0.00 0.00 0.00 41 1006.9
20260508163200 12 273 9.7 14.5 0.00 0.00 0.00 40 1006.7
20260508162655 12 264 8.0 11.3 0.00 0.00 0.00 40 1007.0
20260508162153 11 279 14.5 19.3 0.00 0.00 0.00 42 1006.8
20260508161650 11 270 14.5 16.1 0.00 0.00 0.00 42 1006.9
20260508161147 11 246 8.0 11.3 0.00 0.00 0.00 45 1006.9
20260508160645 11 320 3.2 4.8 0.00 0.00 0.00 45 1007.0
20260508160143 10 280 6.4 8.0 0.00 0.00 0.00 47 1007.2
20260508155639 10 306 4.8 4.8 0.00 0.00 0.00 48 1007.1
20260508155136 10 324 4.8 8.0 0.00 0.00 0.00 46 1007.0
20260508154633 10 266 6.4 8.0 0.00 0.00 0.00 48 1007.2
20260508154130 10 299 9.7 14.5 0.00 0.00 0.00 45 1007.2
20260508153627 10 300 11.3 14.5 0.00 0.00 0.00 45 1007.2
20260508153124 10 285 11.3 14.5 0.00 0.00 0.00 46 1007.3
20260508152621 10 308 4.8 8.0 0.00 0.00 0.00 46 1007.1
20260508152116 10 272 6.4 8.0 0.00 0.00 0.00 45 1007.1
20260508151613 10 283 14.5 16.1 0.00 0.00 0.00 43 1007.1
20260508151110 10 283 12.9 22.5 0.00 0.00 0.00 43 1007.0
20260508150607 11 316 11.3 14.5 0.00 0.00 0.00 42 1007.1
20260508145559 11 318 11.3 19.3 0.00 0.00 0.00 40 1007.0
20260508145056 10 294 8.0 11.3 0.00 0.00 0.00 43 1007.1
20260508144554 10 270 9.7 11.3 0.00 0.00 0.00 43 1007.1
20260508144051 10 295 8.0 22.5 0.00 0.00 0.00 42 1007.0
20260508143548 10 276 11.3 14.5 0.00 0.00 0.00 42 1007.0
20260508143045 10 283 8.0 11.3 0.00 0.00 0.00 45 1007.0
20260508142542 11 273 11.3 24.1 0.00 0.00 0.00 40 1007.0
20260508142038 11 284 11.3 14.5 0.00 0.00 0.00 40 1007.1
20260508141535 11 282 9.7 16.1 0.00 0.00 0.00 42 1007.4
20260508141033 11 291 9.7 14.5 0.00 0.00 0.00 43 1007.2
20260508140530 11 269 14.5 19.3 0.00 0.00 0.00 43 1007.2
20260508140026 11 267 11.3 19.3 0.00 0.00 0.00 44 1007.5
20260508135521 10 275 12.9 22.5 0.00 0.00 0.00 45 1007.4
20260508135018 10 317 8.0 19.3 0.00 0.00 0.00 45 1007.6
20260508134515 10 332 6.4 14.5 0.00 0.00 0.00 46 1007.8
20260508134012 10 266 9.7 14.5 0.00 0.00 0.00 46 1007.6
20260508133509 10 301 11.3 19.3 0.00 0.00 0.00 46 1007.6
20260508133006 10 268 9.7 14.5 0.00 0.00 0.00 49 1007.8
20260508132504 10 241 8.0 11.3 0.00 0.00 0.00 49 1007.6
20260508132000 10 249 12.9 14.5 0.00 0.00 0.00 50 1007.5
20260508131455 10 327 6.4 8.0 0.00 0.00 0.00 50 1007.6
20260508130952 9 332 9.7 14.5 0.00 0.00 0.00 50 1007.6
20260508130450 9 271 11.3 14.5 0.00 0.00 0.00 50 1007.7
20260508125945 9 338 11.3 16.1 0.00 0.00 0.00 50 1007.7
20260508125441 9 295 11.3 16.1 0.00 0.00 0.00 51 1007.7
20260508124939 9 275 14.5 16.1 0.00 0.00 0.00 51 1007.8
20260508124437 9 288 12.9 19.3 0.00 0.00 0.00 52 1007.8
20260508123934 9 268 12.9 14.5 0.00 0.00 0.00 53 1007.8
20260508123433 8 268 14.5 16.1 0.00 0.00 0.00 52 1007.7
20260508122929 8 264 8.0 16.1 0.00 0.00 0.00 53 1007.8
20260508122426 8 285 9.7 14.5 0.00 0.00 0.00 55 1007.7
20260508121923 8 272 9.7 11.3 0.00 0.00 0.00 54 1007.8
20260508121421 8 273 12.9 19.3 0.00 0.00 0.00 53 1007.9
20260508120918 8 302 6.4 14.5 0.00 0.00 0.00 53 1007.7
20260508120416 8 237 8.0 11.3 0.00 0.00 0.00 53 1007.8
20260508115913 8 310 4.8 4.8 0.00 0.00 0.00 54 1008.0
20260508115412 8 356 3.2 4.8 0.00 0.00 0.00 57 1007.8
20260508114907 8 225 3.2 8.0 0.00 0.00 0.00 56 1007.7
20260508114404 7 26 0.0 3.2 0.00 0.00 0.00 55 1007.6
20260508113901 7 22 3.2 4.8 0.00 0.00 0.00 58 1007.7
20260508113359 7 32 3.2 3.2 0.00 0.00 0.00 57 1007.8
20260508112856 7 17 1.6 3.2 0.00 0.00 0.00 59 1007.6
20260508112353 6 18 1.6 3.2 0.00 0.00 0.00 62 1007.5
20260508111849 6 19 0.0 3.2 0.00 0.00 0.00 64 1007.9
20260508111346 5 18 0.0 0.0 0.00 0.00 0.00 65 1007.7
20260508110843 6 42 3.2 4.8 0.00 0.00 0.00 66 1007.6
20260508110341 7 349 0.0 3.2 0.00 0.00 0.00 58 1007.7
20260508105841 6 349 0.0 0.0 0.00 0.00 0.00 59 1007.4
20260508105337 5 348 0.0 0.0 0.00 0.00 0.00 64 1007.6
20260508104834 5 348 0.0 0.0 0.00 0.00 0.00 66 1007.4
20260508104331 4 348 1.6 3.2 0.00 0.00 0.00 66 1007.6
20260508103829 3 348 0.0 0.0 0.00 0.00 0.00 71 1007.5
20260508103325 3 348 0.0 3.2 0.00 0.00 0.00 73 1007.3
20260508102823 3 348 0.0 0.0 0.00 0.00 0.00 73 1007.3
20260508102321 3 357 0.0 4.8 0.00 0.00 0.00 75 1007.2
20260508101818 3 1 3.2 3.2 0.00 0.00 0.00 73 1007.2
20260508101315 3 1 0.0 3.2 0.00 0.00 0.00 71 1007.1
20260508100813 3 1 0.0 3.2 0.00 0.00 0.00 70 1007.0
20260508100311 3 1 0.0 3.2 0.00 0.00 0.00 71 1006.9
20260508095806 3 1 0.0 0.0 0.00 0.00 0.00 71 1007.0
20260508095306 3 1 0.0 0.0 0.00 0.00 0.00 71 1006.9
20260508094801 3 1 0.0 0.0 0.00 0.00 0.00 70 1006.9
20260508094258 3 0 0.0 3.2 0.00 0.00 0.00 69 1007.0
20260508093755 3 320 3.2 4.8 0.00 0.00 0.00 68 1006.9
20260508093253 3 320 3.2 3.2 0.00 0.00 0.00 68 1006.7
20260508092749 3 319 3.2 4.8 0.00 0.00 0.00 68 1006.7
20260508092248 3 320 3.2 3.2 0.00 0.00 0.00 68 1006.6